Location: Croisilles
(50.1998°N, 2.8793°E)
Time: 12:23:43
(UTC+00:00)

COSMOS 2455 - Pass Details

Date: 21 January 2021
Orbit: 901 x 908 km, 67.1° (Epoch: 27 February)

Event Time Altitude Azimuth Distance (km) Brightness Sun altitude
Rises 19:31:26 0° 248° (WSW) 3,529 6.8 -29.6°
Reaches altitude 10° 19:34:10 10° 257° (WSW) 2,592 6.1 -30.0°
Maximum altitude 19:39:38 35° 322° (NW) 1,434 4.1 -30.9°
Enters shadow 19:41:32 29° 357° (N) 1,619 4.2 -31.2°
